Weather History for KVNC - June, 2014

Change the Weather History Date:

Monday, June 2, 2014

  Actual Average (KSRQ) Record (KSRQ)
Temperature  
Mean Temperature 76 °F 79 °F  
Max Temperature 82 °F 88 °F 97 °F (1971)
Min Temperature 71 °F 71 °F 58 °F (1984)
Degree Days  
Heating Degree Days 0 0  
Month to date heating degree days 0  
Since 1 June heating degree days 0  
Since 1 July heating degree days 477  
Cooling Degree Days 12 14  
Month to date cooling degree days 28  
Year to date cooling degree days 779  
Since 1 June cooling degree days 28  
Growing Degree Days 26 (Base 50)    
Moisture  
Dew Point 70 °F    
Average Humidity 80    
Maximum Humidity 100    
Minimum Humidity 62    
Precipitation  
Precipitation 0.00 in 0.16 in 1.45 in (1999)
Month to date precipitation 0.31  
Year to date precipitation 14.01  
Sea Level Pressure  
Sea Level Pressure 30.06 in    
Wind  
Wind Speed 11 mph (ENE)    
Max Wind Speed 20 mph    
Max Gust Speed 26 mph    
Visibility 10 miles    
Events      
T = Trace of Precipitation, MM = Missing Value Source: NWS Daily Summary

Daily Weather History Graph

Daily Weather History Graph

Search for Another Location

Airport or City:

Trip Planner

Search our weather history database for the weather conditions in past years. The results will help you decide how hot, cold, wet, or windy it might be!

Date:

Astronomy

Jun. 02, 2014 Rise Set
Actual Time 6:35 AM EDT 8:20 PM EDT
Civil Twilight 6:09 AM EDT 8:46 PM EDT
Nautical Twilight 5:37 AM EDT 9:17 PM EDT
Astronomical Twilight 5:04 AM EDT 9:50 PM EDT
Moon 10:48 AM EDT (6/2) No Moon Set
Length of Visible Light 14h 37m
Length of Day
13h 44m
Waxing Crescent, 21% of the Moon is Illuminated
Jun 2
Waxing Crescent
Jun 5
First Quarter
Jun 13
Full
Jun 19
Last Quarter
Jun 27
New

Hourly Weather History & Observations

Time (EDT) Temp. Heat Index Dew Point Humidity Pressure Visibility Wind Dir Wind Speed Gust Speed Precip Events Conditions
12:15 AM 75.2 °F - 71.6 °F 89% 30.06 in 10.0 mi East 9.2 mph - N/A   Clear
12:35 AM 73.4 °F - 71.6 °F 94% 30.06 in 10.0 mi East 10.4 mph - N/A   Clear
12:55 AM 73.4 °F - 71.6 °F 94% 30.05 in 10.0 mi East 10.4 mph - N/A   Clear
1:15 AM 73.4 °F - 71.6 °F 94% 30.05 in 10.0 mi ENE 10.4 mph - N/A   Clear
1:35 AM 73.4 °F - 71.6 °F 94% 30.04 in 10.0 mi ENE 10.4 mph - N/A   Clear
1:55 AM 73.4 °F - 71.6 °F 94% 30.04 in 10.0 mi ENE 8.1 mph - N/A   Clear
2:15 AM 73.4 °F - 71.6 °F 94% 30.04 in 10.0 mi ENE 6.9 mph - N/A   Clear
2:35 AM 73.4 °F - 71.6 °F 94% 30.04 in 10.0 mi ENE 8.1 mph - N/A   Clear
2:55 AM 73.4 °F - 71.6 °F 94% 30.04 in 10.0 mi ENE 8.1 mph - N/A   Clear
3:15 AM 73.4 °F - 71.6 °F 94% 30.03 in 10.0 mi ENE 6.9 mph - N/A   Clear
3:35 AM 73.4 °F - 71.6 °F 94% 30.03 in 10.0 mi ENE 9.2 mph - N/A   Clear
3:55 AM 73.4 °F - 71.6 °F 94% 30.03 in 10.0 mi ENE 9.2 mph - N/A   Clear
4:15 AM 73.4 °F - 71.6 °F 94% 30.03 in 10.0 mi ENE 8.1 mph - N/A   Clear
4:35 AM 71.6 °F - 71.6 °F 100% 30.03 in 10.0 mi ENE 8.1 mph - N/A   Clear
4:55 AM 71.6 °F - 71.6 °F 100% 30.02 in 10.0 mi ENE 9.2 mph - N/A   Clear
5:15 AM 71.6 °F - 71.6 °F 100% 30.02 in 10.0 mi ENE 9.2 mph - N/A   Clear
5:35 AM 71.6 °F - 71.6 °F 100% 30.03 in 10.0 mi ENE 9.2 mph - N/A   Clear
5:55 AM 73.4 °F - 71.6 °F 94% 30.03 in 10.0 mi East 10.4 mph - N/A   Clear
6:15 AM 73.4 °F - 71.6 °F 94% 30.03 in 10.0 mi ENE 11.5 mph - N/A   Clear
6:35 AM 73.4 °F - 71.6 °F 94% 30.04 in 10.0 mi East 12.7 mph - N/A   Clear
6:55 AM 73.4 °F - 71.6 °F 94% 30.05 in 9.0 mi North - - N/A   Clear
7:15 AM 73.4 °F - 71.6 °F 94% 30.06 in 9.0 mi ENE 9.2 mph - N/A   Clear
7:35 AM 73.4 °F - 71.6 °F 94% 30.06 in 9.0 mi ENE 11.5 mph - N/A   Clear
7:55 AM 75.2 °F - 71.6 °F 89% 30.07 in 10.0 mi ENE 12.7 mph 17.3 mph N/A   Clear
8:15 AM 75.2 °F - 71.6 °F 89% 30.07 in 10.0 mi ENE 13.8 mph - N/A   Clear
8:35 AM 75.2 °F - 73.4 °F 94% 30.08 in 10.0 mi East 15.0 mph 24.2 mph N/A   Clear
8:55 AM 75.2 °F - 71.6 °F 89% 30.08 in 10.0 mi ENE 15.0 mph 21.9 mph N/A   Clear
9:15 AM 77.0 °F - 71.6 °F 83% 30.08 in 10.0 mi ENE 17.3 mph 24.2 mph N/A   Partly Cloudy
9:35 AM 77.0 °F - 71.6 °F 83% 30.09 in 10.0 mi East 18.4 mph 23.0 mph N/A   Clear
9:55 AM 77.0 °F - 73.4 °F 89% 30.09 in 10.0 mi ENE 18.4 mph - N/A   Clear
10:15 AM 77.0 °F - 71.6 °F 83% 30.09 in 10.0 mi East 15.0 mph 19.6 mph N/A   Clear
10:35 AM 80.6 °F 85.4 °F 73.4 °F 79% 30.09 in 10.0 mi ENE 17.3 mph 21.9 mph N/A   Clear
10:55 AM 78.8 °F - 71.6 °F 78% 30.09 in 10.0 mi East 12.7 mph 23.0 mph N/A   Clear
11:15 AM 80.6 °F 84.6 °F 71.6 °F 74% 30.09 in 10.0 mi East 18.4 mph 21.9 mph N/A   Clear
11:35 AM 78.8 °F - 71.6 °F 78% 30.10 in 10.0 mi East 18.4 mph 26.5 mph N/A   Scattered Clouds
11:55 AM 80.6 °F 84.6 °F 71.6 °F 74% 30.10 in 10.0 mi ENE 17.3 mph 21.9 mph N/A   Overcast
12:15 PM 80.6 °F 84.6 °F 71.6 °F 74% 30.10 in 10.0 mi ENE 18.4 mph 24.2 mph N/A   Mostly Cloudy
12:55 PM 80.6 °F 84.6 °F 71.6 °F 74% 30.09 in 10.0 mi ENE 18.4 mph 23.0 mph N/A   Mostly Cloudy
1:35 PM 82.4 °F 87.2 °F 71.6 °F 70% 30.08 in 10.0 mi East 19.6 mph 25.3 mph N/A   Scattered Clouds
2:15 PM 82.4 °F 86.3 °F 69.8 °F 66% 30.07 in 10.0 mi East 17.3 mph - N/A   Mostly Cloudy
2:35 PM 82.4 °F 86.3 °F 69.8 °F 66% 30.07 in 10.0 mi East 16.1 mph 21.9 mph N/A   Scattered Clouds
2:55 PM 82.4 °F 86.3 °F 69.8 °F 66% 30.06 in 10.0 mi East 16.1 mph - N/A   Mostly Cloudy
3:15 PM 82.4 °F 86.3 °F 69.8 °F 66% 30.05 in 10.0 mi East 15.0 mph 24.2 mph N/A   Scattered Clouds
3:55 PM 82.4 °F 86.3 °F 69.8 °F 66% 30.04 in 10.0 mi East 15.0 mph 24.2 mph N/A   Overcast
4:15 PM 82.4 °F 86.3 °F 69.8 °F 66% 30.04 in 10.0 mi East 15.0 mph 19.6 mph N/A   Mostly Cloudy
4:35 PM 82.4 °F 85.4 °F 68.0 °F 62% 30.04 in 10.0 mi East 16.1 mph 24.2 mph N/A   Overcast
4:55 PM 80.6 °F 83.2 °F 68.0 °F 65% 30.04 in 10.0 mi East 11.5 mph - N/A   Overcast
5:15 PM 82.4 °F 85.4 °F 68.0 °F 62% 30.04 in 10.0 mi East 11.5 mph 19.6 mph N/A   Mostly Cloudy
5:35 PM 82.4 °F 85.4 °F 68.0 °F 62% 30.04 in 10.0 mi East 11.5 mph - N/A   Mostly Cloudy
5:55 PM 82.4 °F 85.4 °F 68.0 °F 62% 30.03 in 10.0 mi East 11.5 mph 17.3 mph N/A   Scattered Clouds
6:15 PM 82.4 °F 85.4 °F 68.0 °F 62% 30.03 in 10.0 mi ENE 16.1 mph 19.6 mph N/A   Partly Cloudy
6:35 PM 82.4 °F 85.4 °F 68.0 °F 62% 30.02 in 10.0 mi East 12.7 mph - N/A   Partly Cloudy
6:55 PM 80.6 °F 83.2 °F 68.0 °F 65% 30.02 in 10.0 mi East 11.5 mph 19.6 mph N/A   Clear
7:15 PM 80.6 °F 83.2 °F 68.0 °F 65% 30.03 in 10.0 mi East 9.2 mph - N/A   Clear
7:35 PM 80.6 °F 83.2 °F 68.0 °F 65% 30.04 in 10.0 mi East 9.2 mph 16.1 mph N/A   Clear
7:55 PM 80.6 °F 83.2 °F 68.0 °F 65% 30.04 in 10.0 mi ENE 10.4 mph - N/A   Clear
8:15 PM 78.8 °F - 68.0 °F 69% 30.04 in 10.0 mi ENE 8.1 mph - N/A   Clear
8:35 PM 78.8 °F - 68.0 °F 69% 30.05 in 10.0 mi ENE 5.8 mph - N/A   Clear
8:55 PM 78.8 °F - 68.0 °F 69% 30.06 in 10.0 mi East 9.2 mph - N/A   Clear
9:15 PM 77.0 °F - 68.0 °F 74% 30.06 in 10.0 mi East 8.1 mph - N/A   Partly Cloudy
9:35 PM 77.0 °F - 66.2 °F 69% 30.06 in 10.0 mi East 10.4 mph - N/A   Partly Cloudy
9:55 PM 77.0 °F - 68.0 °F 74% 30.07 in 10.0 mi East 10.4 mph - N/A   Clear
10:15 PM 77.0 °F - 68.0 °F 74% 30.08 in 10.0 mi East 12.7 mph - N/A   Clear
10:35 PM 77.0 °F - 68.0 °F 74% 30.08 in 10.0 mi East 10.4 mph - N/A   Clear
10:55 PM 75.2 °F - 68.0 °F 78% 30.09 in 10.0 mi ENE 9.2 mph - N/A   Clear
11:15 PM 75.2 °F - 68.0 °F 78% 30.09 in 10.0 mi ENE 10.4 mph - N/A   Clear
11:35 PM 75.2 °F - 68.0 °F 78% 30.09 in 10.0 mi East 13.8 mph - N/A   Clear
11:55 PM 75.2 °F - 66.2 °F 73% 30.08 in 10.0 mi East 10.4 mph 16.1 mph N/A   Clear